Time,TemperatureF,DewpointF,PressureIn,WindDirection,WindDirectionDegrees,WindSpeedMPH,WindSpeedGustMPH,Humidity,HourlyPrecipIn,Conditions,Clouds,dailyrainin,SoftwareType,DateUTC
2013-02-22 00:01:00,27.0,27.0,29.99,NW,324,0.0,1.0,100,0.00,,,0.00,,2013-02-22 08:01:00,
2013-02-22 00:11:00,27.0,27.0,29.99,NW,324,0.0,1.0,100,0.00,,,0.00,,2013-02-22 08:11:00,
2013-02-22 00:21:00,28.0,28.0,29.98,WNW,300,0.0,1.0,100,0.00,,,0.00,,2013-02-22 08:21:00,
2013-02-22 00:31:00,28.0,28.0,29.99,WNW,300,0.0,1.0,100,0.00,,,0.00,,2013-02-22 08:31:00,
2013-02-22 00:41:00,28.0,28.0,29.99,WNW,300,0.0,1.0,100,0.00,,,0.00,,2013-02-22 08:41:00,
2013-02-22 00:52:00,27.0,27.0,29.99,North,352,0.0,2.0,100,0.00,,,0.00,,2013-02-22 08:52:00,
2013-02-22 01:03:00,28.0,28.0,29.99,NNW,337,0.0,1.0,100,0.00,,,0.00,,2013-02-22 09:03:00,
2013-02-22 01:11:00,28.0,28.0,30.00,NNW,336,0.0,1.0,100,0.00,,,0.00,,2013-02-22 09:11:00,
2013-02-22 01:21:00,28.0,28.0,30.00,NNW,336,0.0,1.0,100,0.00,,,0.00,,2013-02-22 09:21:00,
2013-02-22 01:31:00,28.0,28.0,30.00,NNW,336,0.0,1.0,100,0.00,,,0.00,,2013-02-22 09:31:00,
2013-02-22 01:41:00,28.0,28.0,30.00,NNW,336,0.0,1.0,100,0.00,,,0.00,,2013-02-22 09:41:00,
2013-02-22 01:51:00,28.0,28.0,30.00,SW,235,1.0,3.0,100,0.00,,,0.00,,2013-02-22 09:51:00,
2013-02-22 02:01:00,29.0,29.0,29.99,SW,235,2.0,4.0,100,0.00,,,0.00,,2013-02-22 10:01:00,
2013-02-22 02:11:00,29.0,29.0,29.99,SW,235,2.0,4.0,100,0.00,,,0.00,,2013-02-22 10:11:00,
2013-02-22 02:21:00,29.0,29.0,30.00,WSW,243,1.0,3.0,100,0.00,,,0.00,,2013-02-22 10:21:00,
2013-02-22 02:31:00,29.0,29.0,30.00,WSW,243,1.0,3.0,100,0.00,,,0.00,,2013-02-22 10:31:00,
2013-02-22 02:42:00,29.0,29.0,30.00,WSW,243,1.0,3.0,100,0.00,,,0.00,,2013-02-22 10:42:00,
2013-02-22 02:51:00,29.0,29.0,29.99,SSW,203,1.0,5.0,100,0.00,,,0.00,,2013-02-22 10:51:00,
2013-02-22 03:01:00,29.0,29.0,29.98,SW,236,0.0,1.0,100,0.00,,,0.00,,2013-02-22 11:01:00,
2013-02-22 03:11:00,29.0,29.0,29.98,SW,236,0.0,1.0,100,0.00,,,0.00,,2013-02-22 11:11:00,
2013-02-22 03:21:00,30.0,30.0,29.98,SSE,157,0.0,3.0,100,0.00,,,0.00,,2013-02-22 11:21:00,
2013-02-22 03:32:00,30.0,30.0,29.98,SW,222,0.0,2.0,100,0.00,,,0.00,,2013-02-22 11:32:00,
2013-02-22 03:42:00,30.0,30.0,29.98,SW,222,0.0,2.0,100,0.00,,,0.00,,2013-02-22 11:42:00,
2013-02-22 03:52:00,29.0,29.0,29.98,WSW,241,0.0,1.0,100,0.00,,,0.00,,2013-02-22 11:52:00,
2013-02-22 04:01:00,30.0,30.0,29.99,WSW,241,0.0,0.0,100,0.00,,,0.00,,2013-02-22 12:01:00,
2013-02-22 04:11:00,30.0,30.0,29.99,WSW,241,0.0,0.0,100,0.00,,,0.00,,2013-02-22 12:11:00,
2013-02-22 04:21:00,29.0,29.0,29.99,WSW,242,0.0,0.0,100,0.00,,,0.00,,2013-02-22 12:21:00,
2013-02-22 04:32:00,29.0,29.0,29.99,WSW,242,0.0,0.0,100,0.00,,,0.00,,2013-02-22 12:32:00,
2013-02-22 04:42:00,29.0,29.0,29.99,WSW,242,0.0,0.0,100,0.00,,,0.00,,2013-02-22 12:42:00,
2013-02-22 04:52:00,29.0,29.0,29.98,WSW,242,0.0,2.0,100,0.00,,,0.00,,2013-02-22 12:52:00,
2013-02-22 05:01:00,29.0,29.0,29.98,SSW,198,3.0,5.0,100,0.00,,,0.00,,2013-02-22 13:01:00,
2013-02-22 05:11:00,29.0,29.0,29.98,SSW,198,3.0,5.0,100,0.00,,,0.00,,2013-02-22 13:11:00,
2013-02-22 05:22:00,30.0,30.0,29.98,SSW,204,2.0,4.0,100,0.00,,,0.00,,2013-02-22 13:22:00,
2013-02-22 05:31:00,30.0,30.0,29.99,SSW,211,2.0,5.0,99,0.00,,,0.00,,2013-02-22 13:31:00,
2013-02-22 05:41:00,30.0,30.0,29.99,SSW,211,2.0,5.0,99,0.00,,,0.00,,2013-02-22 13:41:00,
2013-02-22 05:52:00,30.0,30.0,29.99,SW,232,3.0,4.0,99,0.00,,,0.00,,2013-02-22 13:52:00,
2013-02-22 06:01:00,30.0,30.0,29.99,SW,219,2.0,3.0,99,0.00,,,0.00,,2013-02-22 14:01:00,
2013-02-22 06:11:00,30.0,30.0,29.98,SW,220,2.0,3.0,99,0.00,,,0.00,,2013-02-22 14:11:00,
2013-02-22 06:21:00,30.0,30.0,29.98,SW,220,2.0,3.0,99,0.00,,,0.00,,2013-02-22 14:21:00,
2013-02-22 06:31:00,30.0,30.0,29.97,SSW,198,2.0,4.0,100,0.00,,,0.00,,2013-02-22 14:31:00,
2013-02-22 06:41:00,30.0,30.0,29.97,SSW,198,2.0,4.0,100,0.00,,,0.00,,2013-02-22 14:41:00,
2013-02-22 06:52:00,30.0,30.0,29.97,SSW,198,2.0,4.0,100,0.00,,,0.00,,2013-02-22 14:52:00,
2013-02-22 07:01:00,30.0,30.0,29.97,SSW,209,3.0,5.0,100,0.00,,,0.00,,2013-02-22 15:01:00,
2013-02-22 07:11:00,30.0,30.0,29.97,SSW,209,3.0,5.0,100,0.00,,,0.00,,2013-02-22 15:11:00,
2013-02-22 07:21:00,30.0,30.0,29.97,SSW,207,3.0,5.0,100,0.00,,,0.00,,2013-02-22 15:21:00,
2013-02-22 07:31:00,31.0,31.0,29.97,SSW,203,3.0,4.0,100,0.00,,,0.00,,2013-02-22 15:31:00,
2013-02-22 07:41:00,31.0,31.0,29.97,SSW,203,3.0,4.0,100,0.00,,,0.00,,2013-02-22 15:41:00,
2013-02-22 07:52:00,31.0,31.0,29.97,SSW,207,4.0,5.0,100,0.00,,,0.00,,2013-02-22 15:52:00,
2013-02-22 08:01:00,31.0,31.0,29.96,SSW,203,3.0,5.0,100,0.00,,,0.00,,2013-02-22 16:01:00,
2013-02-22 08:11:00,31.0,31.0,29.96,SSW,203,3.0,5.0,100,0.00,,,0.00,,2013-02-22 16:11:00,
2013-02-22 08:21:00,31.0,31.0,29.96,SSW,195,3.0,6.0,100,0.00,,,0.00,,2013-02-22 16:21:00,
2013-02-22 08:31:00,31.0,31.0,29.94,SSW,203,3.0,5.0,100,0.00,,,0.00,,2013-02-22 16:31:00,
2013-02-22 08:41:00,31.0,31.0,29.94,SSW,203,3.0,5.0,100,0.00,,,0.00,,2013-02-22 16:41:00,
2013-02-22 08:52:00,32.0,32.0,29.94,SW,214,4.0,6.0,100,0.00,,,0.00,,2013-02-22 16:52:00,
2013-02-22 09:01:00,32.0,32.0,29.94,SSW,207,6.0,9.0,100,0.00,,,0.00,,2013-02-22 17:01:00,
2013-02-22 09:11:00,32.0,32.0,29.94,SSW,207,6.0,9.0,100,0.00,,,0.00,,2013-02-22 17:11:00,
2013-02-22 09:21:00,32.0,32.0,29.93,SW,217,8.0,12.0,100,0.00,,,0.00,,2013-02-22 17:21:00,
2013-02-22 09:31:00,32.0,32.0,29.93,SSW,197,10.0,16.0,100,0.00,,,0.00,,2013-02-22 17:31:00,
2013-02-22 09:41:00,32.0,32.0,29.93,SSW,197,10.0,16.0,100,0.00,,,0.00,,2013-02-22 17:41:00,
2013-02-22 09:52:00,33.0,33.0,29.93,SSW,207,10.0,15.0,100,0.00,,,0.00,,2013-02-22 17:52:00,
2013-02-22 10:01:00,33.0,33.0,29.91,SSW,207,11.0,15.0,99,0.00,,,0.00,,2013-02-22 18:01:00,
2013-02-22 10:11:00,33.0,33.0,29.91,SSW,203,14.0,18.0,99,0.00,,,0.00,,2013-02-22 18:11:00,
2013-02-22 10:22:00,33.0,33.0,29.91,SSW,203,14.0,18.0,99,0.00,,,0.00,,2013-02-22 18:22:00,
2013-02-22 10:31:00,33.0,33.0,29.90,SSW,203,11.0,16.0,99,0.00,,,0.00,,2013-02-22 18:31:00,
2013-02-22 10:42:00,33.0,33.0,29.90,SSW,203,11.0,16.0,99,0.00,,,0.00,,2013-02-22 18:42:00,
2013-02-22 10:52:00,33.0,33.0,29.89,SSW,207,9.0,17.0,99,0.00,,,0.00,,2013-02-22 18:52:00,
2013-02-22 11:01:00,33.0,32.0,29.89,SSW,201,8.0,12.0,98,0.00,,,0.00,,2013-02-22 19:01:00,
2013-02-22 11:11:00,33.0,32.0,29.88,South,182,7.0,10.0,98,0.00,,,0.00,,2013-02-22 19:11:00,
2013-02-22 11:21:00,33.0,32.0,29.88,South,182,7.0,10.0,98,0.00,,,0.00,,2013-02-22 19:21:00,
2013-02-22 11:31:00,34.0,34.0,29.87,SSW,193,9.0,12.0,98,0.00,,,0.00,,2013-02-22 19:31:00,
2013-02-22 11:41:00,34.0,34.0,29.86,SSW,196,13.0,16.0,98,0.00,,,0.00,,2013-02-22 19:41:00,
2013-02-22 11:52:00,34.0,34.0,29.86,SSW,196,13.0,16.0,98,0.00,,,0.00,,2013-02-22 19:52:00,
2013-02-22 12:01:00,34.0,33.0,29.85,SSW,193,10.0,16.0,97,0.00,,,0.00,,2013-02-22 20:01:00,
2013-02-22 12:11:00,34.0,33.0,29.85,SSW,193,10.0,16.0,97,0.00,,,0.00,,2013-02-22 20:11:00,
2013-02-22 12:21:00,34.0,33.0,29.83,SSW,212,11.0,18.0,96,0.00,,,0.00,,2013-02-22 20:21:00,
2013-02-22 12:31:00,34.0,33.0,29.82,SSW,200,11.0,15.0,96,0.00,,,0.00,,2013-02-22 20:31:00,
2013-02-22 12:41:00,34.0,33.0,29.82,SSW,200,11.0,15.0,96,0.00,,,0.00,,2013-02-22 20:41:00,
2013-02-22 12:52:00,34.0,33.0,29.80,SSW,212,14.0,20.0,96,0.00,,,0.00,,2013-02-22 20:52:00,
2013-02-22 13:01:00,34.0,33.0,29.80,SSW,203,13.0,18.0,97,0.00,,,0.00,,2013-02-22 21:01:00,
2013-02-22 13:11:00,34.0,33.0,29.80,SSW,203,13.0,18.0,97,0.00,,,0.00,,2013-02-22 21:11:00,
2013-02-22 13:21:00,34.0,34.0,29.79,SSW,194,13.0,21.0,98,0.00,,,0.00,,2013-02-22 21:21:00,
2013-02-22 13:31:00,34.0,34.0,29.78,SSW,203,12.0,16.0,98,0.00,,,0.00,,2013-02-22 21:31:00,
2013-02-22 13:41:00,34.0,34.0,29.78,SSW,203,12.0,16.0,98,0.00,,,0.00,,2013-02-22 21:41:00,
2013-02-22 13:52:00,33.0,33.0,29.77,SSW,197,10.0,16.0,99,0.00,,,0.00,,2013-02-22 21:52:00,
2013-02-22 14:01:00,33.0,33.0,29.76,SSW,201,7.0,11.0,99,0.00,,,0.00,,2013-02-22 22:01:00,
2013-02-22 14:11:00,33.0,33.0,29.76,SSW,201,7.0,11.0,99,0.00,,,0.00,,2013-02-22 22:11:00,
2013-02-22 14:21:00,33.0,33.0,29.75,SSW,203,6.0,13.0,100,0.00,,,0.00,,2013-02-22 22:21:00,
2013-02-22 14:31:00,33.0,33.0,29.75,SSW,194,6.0,10.0,100,0.00,,,0.00,,2013-02-22 22:31:00,
2013-02-22 14:41:00,33.0,33.0,29.75,SSW,194,6.0,10.0,100,0.00,,,0.00,,2013-02-22 22:41:00,
2013-02-22 14:52:00,33.0,33.0,29.74,SSW,207,4.0,10.0,100,0.00,,,0.00,,2013-02-22 22:52:00,
2013-02-22 15:01:00,33.0,33.0,29.74,SSW,210,8.0,11.0,100,0.00,,,0.00,,2013-02-22 23:01:00,
2013-02-22 15:11:00,33.0,33.0,29.74,SSW,210,8.0,11.0,100,0.00,,,0.00,,2013-02-22 23:11:00,
2013-02-22 15:21:00,33.0,33.0,29.74,SSW,201,7.0,9.0,100,0.00,,,0.00,,2013-02-22 23:21:00,
2013-02-22 15:31:00,33.0,33.0,29.73,SW,214,8.0,13.0,100,0.00,,,0.00,,2013-02-22 23:31:00,
2013-02-22 15:41:00,33.0,33.0,29.73,SW,214,8.0,13.0,100,0.00,,,0.00,,2013-02-22 23:41:00,
2013-02-22 15:52:00,33.0,33.0,29.72,SW,215,7.0,16.0,99,0.00,,,0.00,,2013-02-22 23:52:00,
2013-02-22 16:01:00,33.0,33.0,29.71,South,191,8.0,12.0,99,0.00,,,0.00,,2013-02-23 00:01:00,
2013-02-22 16:11:00,33.0,33.0,29.71,South,191,8.0,12.0,99,0.00,,,0.00,,2013-02-23 00:11:00,
2013-02-22 16:21:00,33.0,33.0,29.70,SE,136,4.0,7.0,100,0.00,,,0.00,,2013-02-23 00:21:00,
2013-02-22 16:31:00,33.0,33.0,29.70,SSW,196,4.0,6.0,100,0.00,,,0.00,,2013-02-23 00:31:00,
2013-02-22 16:41:00,33.0,33.0,29.70,SSW,196,4.0,6.0,100,0.00,,,0.00,,2013-02-23 00:41:00,
2013-02-22 16:52:00,34.0,34.0,29.70,SSW,200,7.0,11.0,100,0.00,,,0.00,,2013-02-23 00:52:00,
2013-02-22 17:01:00,34.0,34.0,29.69,SSW,198,10.0,14.0,100,0.00,,,0.00,,2013-02-23 01:01:00,
2013-02-22 17:11:00,34.0,34.0,29.69,SSW,198,10.0,14.0,100,0.00,,,0.00,,2013-02-23 01:11:00,
2013-02-22 17:21:00,34.0,34.0,29.68,SSW,196,11.0,16.0,100,0.00,,,0.00,,2013-02-23 01:21:00,
2013-02-22 17:31:00,34.0,34.0,29.68,SSW,203,10.0,13.0,100,0.00,,,0.00,,2013-02-23 01:31:00,
2013-02-22 17:41:00,34.0,34.0,29.68,SSW,203,10.0,13.0,100,0.00,,,0.00,,2013-02-23 01:41:00,
2013-02-22 17:52:00,35.0,35.0,29.67,SSW,199,10.0,14.0,100,0.00,,,0.00,,2013-02-23 01:52:00,
2013-02-22 18:01:00,36.0,36.0,29.67,SSW,211,11.0,15.0,99,0.00,,,0.00,,2013-02-23 02:01:00,
2013-02-22 18:11:00,36.0,36.0,29.66,SSW,201,10.0,16.0,99,0.00,,,0.00,,2013-02-23 02:11:00,
2013-02-22 18:21:00,36.0,36.0,29.66,SSW,201,10.0,16.0,99,0.00,,,0.00,,2013-02-23 02:21:00,
2013-02-22 18:31:00,37.0,36.0,29.66,SSW,203,12.0,18.0,98,0.00,,,0.00,,2013-02-23 02:31:00,
2013-02-22 18:41:00,37.0,36.0,29.66,SSW,203,12.0,18.0,98,0.00,,,0.00,,2013-02-23 02:41:00,
2013-02-22 18:52:00,37.0,36.0,29.65,SW,218,15.0,19.0,98,0.00,,,0.00,,2013-02-23 02:52:00,
2013-02-22 19:01:00,37.0,36.0,29.65,SSW,207,14.0,24.0,97,0.00,,,0.00,,2013-02-23 03:01:00,
2013-02-22 19:11:00,37.0,36.0,29.65,SSW,207,14.0,24.0,97,0.00,,,0.00,,2013-02-23 03:11:00,
2013-02-22 19:21:00,37.0,36.0,29.64,SW,228,14.0,18.0,97,0.00,,,0.00,,2013-02-23 03:21:00,
2013-02-22 19:31:00,37.0,36.0,29.63,SW,214,18.0,25.0,97,0.00,,,0.00,,2013-02-23 03:31:00,
2013-02-22 19:41:00,37.0,36.0,29.63,SW,214,18.0,25.0,97,0.00,,,0.00,,2013-02-23 03:41:00,
2013-02-22 19:52:00,37.0,36.0,29.62,SW,218,18.0,25.0,96,0.00,,,0.00,,2013-02-23 03:52:00,
2013-02-22 20:01:00,36.0,35.0,29.61,SW,220,16.0,22.0,95,0.00,,,0.00,,2013-02-23 04:01:00,
2013-02-22 20:11:00,37.0,36.0,29.61,SW,224,14.0,19.0,96,0.00,,,0.00,,2013-02-23 04:11:00,
2013-02-22 20:21:00,37.0,36.0,29.61,SW,224,14.0,19.0,96,0.00,,,0.00,,2013-02-23 04:21:00,
2013-02-22 20:31:00,37.0,36.0,29.60,SSW,211,13.0,21.0,95,0.00,,,0.00,,2013-02-23 04:31:00,
2013-02-22 20:41:00,37.0,36.0,29.60,SSW,211,13.0,21.0,95,0.00,,,0.00,,2013-02-23 04:41:00,
2013-02-22 20:52:00,37.0,36.0,29.59,SW,230,12.0,17.0,95,0.00,,,0.00,,2013-02-23 04:52:00,
2013-02-22 21:01:00,37.0,35.0,29.59,SW,219,17.0,26.0,94,0.00,,,0.00,,2013-02-23 05:01:00,
2013-02-22 21:11:00,37.0,35.0,29.59,SW,219,17.0,26.0,94,0.00,,,0.00,,2013-02-23 05:11:00,
2013-02-22 21:22:00,37.0,35.0,29.59,SW,219,17.0,26.0,94,0.00,,,0.00,,2013-02-23 05:22:00,
2013-02-22 21:32:00,36.0,34.0,29.61,SSW,203,16.0,28.0,92,0.01,,,0.01,,2013-02-23 05:32:00,
2013-02-22 21:41:00,36.0,34.0,29.61,SSW,203,16.0,28.0,92,0.01,,,0.01,,2013-02-23 05:41:00,
2013-02-22 21:52:00,36.0,34.0,29.61,SSW,203,16.0,28.0,92,0.01,,,0.01,,2013-02-23 05:52:00,
2013-02-22 22:01:00,36.0,34.0,29.61,SW,229,15.0,22.0,91,0.01,,,0.01,,2013-02-23 06:01:00,
2013-02-22 22:11:00,36.0,34.0,29.61,SW,229,15.0,22.0,91,0.01,,,0.01,,2013-02-23 06:11:00,
2013-02-22 22:22:00,36.0,33.0,29.62,South,191,10.0,24.0,88,0.01,,,0.01,,2013-02-23 06:22:00,
2013-02-22 22:31:00,36.0,32.0,29.64,SW,221,11.0,17.0,86,0.00,,,0.01,,2013-02-23 06:31:00,
2013-02-22 22:41:00,36.0,32.0,29.64,SW,221,11.0,17.0,86,0.00,,,0.01,,2013-02-23 06:41:00,
2013-02-22 22:52:00,36.0,32.0,29.63,SSW,208,12.0,18.0,85,0.00,,,0.01,,2013-02-23 06:52:00,
2013-02-22 23:01:00,35.0,31.0,29.64,SW,217,11.0,15.0,85,0.00,,,0.01,,2013-02-23 07:01:00,
2013-02-22 23:11:00,35.0,31.0,29.64,SW,217,11.0,15.0,85,0.00,,,0.01,,2013-02-23 07:11:00,
2013-02-22 23:21:00,35.0,31.0,29.64,SSW,212,10.0,17.0,84,0.00,,,0.01,,2013-02-23 07:21:00,
2013-02-22 23:31:00,35.0,30.0,29.65,SSW,211,10.0,16.0,83,0.00,,,0.01,,2013-02-23 07:31:00,
2013-02-22 23:41:00,35.0,30.0,29.65,SSW,211,10.0,16.0,83,0.00,,,0.01,,2013-02-23 07:41:00,
2013-02-22 23:52:00,35.0,30.0,29.64,SW,224,11.0,20.0,82,0.00,,,0.01,,2013-02-23 07:52:00,